CZ-4C R/B, 47304

Orbit data source: Space-Track

CZ-4C R/B, 47304 is space debris in SSO originally from a launch on Sun, 27 Dec 2020 UTC launched from the Jiuquan Satellite Launch Center, China (JSC). Debris objects in space refer to the collection of defunct objects orbiting the Earth. Examples of debris include non-operational satellites, rocket bodies, and fragments generated from explosions, collisions, or faulty payload assembly.

Loading next visibility...
Identifier
47304, 2020-103C
Orbit
SSO
Country
Flag of CNCN / PRC
Related business
Manufacturer
SAST
Mission
Spacecraft
Bus & Motor
CZ-4 STAGE 3, Unknown motor
Mass
~1,000 kg wet, ~1,000 kg dry
Launch date (UTC)
2020-12-27 (5 years ago)
Launch vehicle
Unknown
Launch site
Jiuquan Satellite Launch Center, China (JSC)
Object type
Payload
Rocket body
Debris
Shape & HBR
Cyl, 2.5 m
Radar Cross Section
14.536 m², Large (>1 m²)

Expand to show TLE details & history
Last TLE update: 2 days ago

TLE from 2 days ago
0 CZ-4C R/B
1 47304U 20103C   26171.06232848  .00001510  00000-0  11486-3 0  9994
2 47304  98.3510 208.1765 0084046 326.7717  32.8243 15.01202346298612
Epoch: 2026-06-20T01:29Z
TLE epoch observation values (Epoch: 2026-06-20T01:29:45.180Z)
Latitude
-0.00006°
Longitude
-82.54409°
Altitude
517.335 km
Speed
7.632 km/s
True Right ascension
13h 52m 42s
True Declination
0° 00' 00"
Sunlit
Object was in full shadow at epoch
Visualization orbit readout
Latitude
Unknown
Longitude
Unknown
Altitude
Unknown
Speed
Unknown
Apparent Right ascension
Unknown
Apparent Declination
Unknown
Sunlit
N/A
Visualization observer readout
Local Sidereal Time
21:28:57
Azimuth
Unknown
Elevation
Unknown
Doppler factor
Unknown
Orbital elements
Apogee altitude
618.535 km
Perigee altitude
501.907 km
Semi-major axis
6,938.358 km
Eccentricity
0.0084
Inclination
98.351°
RAAN
208.1765°
Arg. of periapsis
326.7717°
True anomaly
33.351°
Mean anomaly
32.8243°
Eccentric anomaly
33.08718°
Mean motion
3.75542 °/min
Orbital period
95.86 mins
BSTAR
0.00011486
Loading maneuver chart data...
Computing Atmospheric mass density...
Loading historical data...
Loading historical data...
Loading historical data...
Loading historical data...
Loading historical data...
Loading historical data...
Loading historical data...
Other satellites on launch #103 in the year 2020 (2020-12-27 UTC)

Documentation

Showing up to 5 results
|